sat.trackr.live / text

‹ back to catalog

STARLINK-32370

NORAD 61635 · 2024-191Q

PAYLOAD ACTIVE UNKNOWN

§ Identity

Operator
Country
US
Launch date
2024-10-23
Launch site
AFETR
Launch vehicle
Mass (kg)
RCS (m²)

Purposes: comms

External: N2YO · Heavens-Above · Gunter

§ Orbital elements

Epoch: 2026-09-21T00:32:41.555616Z

Period
94.27 min
Inclination
43.0045°
Eccentricity
0.0001115
Mean motion
15.27578779 rev/d
Perigee alt
482.3 km
Apogee alt
483.8 km
Semi-major
6,861.2 km
B*
3.4527e-5
RAAN
131.0563°
Arg perigee
266.5463°
Mean anomaly
93.5261°
Rev number
10,741

§ Raw data

STARLINK-323701 61635U 24191Q   26264.02270319  .00000688  00000+0  34527-4 0  99982 61635  43.0045 131.0563 0001115 266.5463  93.5261 15.27578779107415

JSON: /api/v1/satellites/61635 · /tle

For live sub-satellite position, see the globe view (requires WebGL).

§ Visibility from observer

Set your observer location to see the next 7 days of passes ≥ 10°. The values pass through the URL so the page stays shareable.

No JS? Fill the form by hand. The geolocation button needs JavaScript.